Date,TemperatureHighF,TemperatureAvgF,TemperatureLowF,DewpointHighF,DewpointAvgF,DewpointLowF,HumidityHigh,HumidityAvg,HumidityLow,PressureMaxIn,PressureMinIn,WindSpeedMaxMPH,WindSpeedAvgMPH,GustSpeedMaxMPH,PrecipitationSumIn
2013-1-1,31.3,24.1,12.9,25.0,15.0,4.0,90,69,55,29.84,29.61,18,5,27,0.00
2013-1-2,24.1,13.7,3.4,12.0,3.6,-4.0,76,65,47,30.03,29.83,17,5,21,0.00
2013-1-3,22.9,10.8,1.7,5.0,0.5,-4.0,83,65,41,30.06,29.93,7,2,9,0.00
2013-1-4,34.4,25.2,11.0,25.0,18.5,4.0,90,76,63,29.91,29.73,11,3,16,0.00
2013-1-5,34.2,29.7,20.1,27.0,19.5,14.0,80,67,51,30.21,29.73,14,5,27,0.00
2013-1-6,37.1,28.5,19.8,28.0,22.5,14.0,89,78,68,30.17,29.89,8,2,14,0.02
2013-1-7,33.8,28.4,21.9,29.0,21.4,12.0,94,76,54,30.35,29.89,6,1,10,0.01
2013-1-8,41.5,30.2,18.6,25.0,21.3,13.0,93,71,49,30.32,30.18,9,4,15,0.00
2013-1-9,38.3,33.5,26.1,32.0,26.7,22.0,89,76,65,30.36,29.89,7,2,11,0.00
2013-1-10,43.3,38.0,29.1,34.0,27.2,24.0,89,66,51,30.48,29.91,22,6,29,0.02
2013-1-11,36.0,31.6,26.0,35.0,25.6,20.0,98,79,55,30.48,30.20,4,1,11,0.07
2013-1-12,40.5,38.3,35.9,40.0,38.1,35.0,100,99,98,30.20,30.07,6,2,10,0.05
2013-1-13,45.1,40.7,37.9,45.0,40.8,38.0,100,100,100,30.11,29.92,8,2,11,0.01
2013-1-14,56.4,45.0,35.3,53.0,40.1,27.0,100,84,61,30.17,29.79,11,4,22,0.00
2013-1-15,39.2,34.2,29.9,28.0,25.1,22.0,86,70,58,30.26,30.17,5,1,8,0.00
2013-1-16,31.1,29.4,28.3,29.0,27.0,22.0,97,91,69,30.22,29.75,6,1,9,0.00
2013-1-17,39.4,29.7,20.2,32.0,22.6,4.0,98,76,49,30.08,29.75,14,4,23,0.27
2013-1-18,20.0,15.1,9.1,5.0,-2.5,-9.0,62,46,36,30.38,30.02,17,4,26,0.00
2013-1-19,41.1,30.0,13.7,27.0,18.2,4.0,69,62,51,30.32,29.82,10,4,20,0.02
2013-1-20,48.7,36.4,24.0,33.0,23.2,3.0,87,61,32,29.83,29.42,27,8,35,0.00
2013-1-21,25.9,20.9,14.6,17.0,5.8,-1.0,91,54,37,30.00,29.79,13,4,31,0.00
2013-1-22,22.8,15.8,6.6,16.0,7.1,-3.0,90,70,42,30.00,29.72,11,3,21,0.00
2013-1-23,6.0,2.8,-0.4,-3.0,-10.6,-15.0,75,54,39,30.08,29.99,15,5,26,0.00
2013-1-24,11.6,3.7,-3.0,-6.0,-10.7,-14.0,60,52,37,30.11,29.99,14,5,29,0.00
2013-1-25,20.2,11.8,4.2,3.0,-2.7,-6.0,66,53,35,30.20,30.03,14,4,23,0.00
2013-1-26,22.8,15.1,9.2,8.0,1.8,-3.0,83,57,35,30.13,29.96,11,3,20,0.00
2013-1-27,25.3,17.2,11.0,4.0,-0.0,-5.0,64,48,36,30.40,30.12,12,4,21,0.00
2013-1-28,25.7,19.5,14.6,20.0,5.9,-6.0,94,60,31,30.39,30.02,5,1,8,0.00
2013-1-29,35.8,27.9,21.0,32.0,25.6,19.0,98,91,81,30.17,30.02,5,1,6,0.14
2013-1-30,54.4,40.3,32.0,54.0,40.2,32.0,100,99,98,30.11,29.40,11,3,14,0.42
2013-1-31,58.6,45.1,29.1,58.0,35.9,10.0,100,73,44,29.41,28.82,24,10,37,0.42
2013-2-1,29.0,24.0,16.3,19.0,10.8,5.0,75,58,44,30.00,29.43,15,6,29,0.00
2013-2-2,25.0,20.3,13.1,15.0,7.7,4.0,69,59,45,30.16,30.00,12,3,16,0.00
2013-2-3,26.9,23.5,17.2,19.0,15.6,13.0,91,73,61,30.01,29.66,9,2,12,0.00
2013-2-4,28.0,22.9,17.2,18.0,8.3,-1.0,84,56,32,29.83,29.64,21,6,29,0.00
2013-2-5,27.4,18.3,10.1,10.0,4.5,1.0,70,56,37,29.98,29.84,10,2,12,0.00
2013-2-6,36.2,25.4,17.8,26.0,15.3,-6.0,92,68,32,30.24,29.90,14,3,24,0.01
2013-2-7,24.4,18.0,11.6,7.0,-1.1,-5.0,60,44,27,30.50,30.24,8,2,16,0.00
2013-2-8,16.6,14.1,11.4,14.0,9.7,-3.0,92,84,42,30.49,29.78,15,6,32,0.00
2013-2-9,20.9,16.7,12.7,18.0,12.5,6.0,93,84,67,30.11,29.63,23,9,36,0.00
2013-2-10,37.0,23.0,8.2,6.0,2.6,-1.0,71,45,24,30.34,30.12,6,2,13,0.00
2013-2-11,34.5,26.3,21.7,34.0,9.3,-99.9,99,59,32,30.30,29.55,5,-34,14,0.00
2013-2-12,42.9,37.5,33.5,35.0,31.0,28.0,99,78,60,29.76,29.51,18,5,25,0.30
2013-2-13,41.7,34.1,30.0,28.0,23.5,20.0,75,66,49,29.79,29.68,8,3,16,0.00
2013-2-14,40.8,33.8,28.0,26.0,22.8,20.0,81,65,48,29.94,29.67,8,2,13,0.00
2013-2-15,49.7,36.6,27.4,32.0,27.5,24.0,91,72,47,29.93,29.84,12,3,14,0.00
2013-2-16,39.1,34.0,28.5,32.0,26.7,11.0,97,76,48,29.91,29.70,7,2,17,0.07
2013-2-17,28.3,20.9,14.8,19.0,11.5,4.0,91,69,45,29.69,29.24,22,8,31,0.00
2013-2-18,27.7,19.3,11.7,6.0,1.0,-5.0,67,48,29,30.05,29.49,20,9,36,0.00
2013-2-19,40.3,31.9,19.6,40.0,14.5,-5.0,98,54,25,30.09,29.51,12,2,14,0.25
2013-2-20,39.4,31.7,24.9,39.0,24.2,15.0,99,75,57,29.66,29.43,22,7,24,0.00
2013-2-21,28.9,24.9,19.8,20.0,14.8,9.0,80,66,53,30.14,29.64,17,6,30,0.00
2013-2-22,39.3,31.0,22.0,24.0,20.8,17.0,83,67,46,30.37,30.14,11,2,17,0.00
2013-2-23,35.8,32.5,29.7,34.0,29.3,24.0,99,88,78,30.31,29.95,5,1,7,0.02
2013-2-24,33.1,31.2,28.6,33.0,30.9,28.0,99,99,98,29.94,29.72,0,0,3,0.00
2013-2-25,39.6,32.5,26.2,34.0,30.5,26.0,98,92,78,30.20,29.87,3,0,7,0.52
2013-2-26,40.3,35.1,32.2,33.0,31.2,29.0,99,86,68,30.32,30.18,6,1,8,0.08
2013-2-27,36.6,33.2,31.3,36.0,32.5,30.0,99,97,89,30.18,29.60,19,6,23,0.36
2013-2-28,41.4,35.5,31.2,38.0,34.3,31.0,99,95,85,29.59,29.51,8,2,15,0.49
2013-3-1,38.0,34.5,31.5,32.0,30.7,29.0,96,86,76,29.63,29.49,9,2,16,0.00
2013-3-2,44.0,35.2,29.9,31.0,29.9,28.0,97,82,56,29.62,29.56,7,2,10,0.01
2013-3-3,40.9,34.3,30.7,35.0,31.1,26.0,97,88,74,29.59,29.51,11,2,14,0.09
2013-3-4,35.3,30.8,27.5,27.0,24.5,22.0,83,77,67,29.68,29.50,19,6,22,0.00
2013-3-5,44.1,36.7,29.0,35.0,29.8,24.0,92,77,61,30.05,29.68,13,4,16,0.00
2013-3-6,37.5,34.4,30.8,34.0,30.6,28.0,98,86,70,30.17,30.05,17,8,29,0.01
2013-3-7,34.6,31.8,30.1,29.0,27.2,25.0,93,83,72,30.14,30.02,16,7,28,0.00
2013-3-8,46.1,36.2,28.0,28.0,24.4,20.0,97,66,37,30.15,29.96,22,7,23,0.02
2013-3-9,52.5,39.0,29.7,30.0,22.2,15.0,95,56,23,30.32,30.14,11,3,17,0.00
2013-3-10,43.1,34.3,25.8,32.0,28.8,24.0,94,81,60,30.38,30.27,7,2,11,0.00
2013-3-11,53.0,39.9,31.1,39.0,33.2,29.0,98,80,41,30.28,30.10,9,4,14,0.00
2013-3-12,48.0,43.6,39.2,48.0,43.4,39.0,100,99,92,30.11,29.68,13,3,21,0.51
2013-3-13,47.8,41.6,32.7,47.0,36.2,28.0,100,83,52,29.71,29.64,13,3,16,0.01
2013-3-14,35.1,30.0,18.8,27.0,20.0,7.0,87,67,51,29.73,29.60,16,5,35,0.00
2013-3-15,36.8,26.2,16.1,29.0,13.6,5.0,95,61,32,29.77,29.58,11,5,20,0.00
2013-3-16,33.5,28.4,21.8,28.0,16.5,11.0,94,63,42,29.85,29.61,9,3,16,0.04
2013-3-17,30.8,25.2,17.5,13.0,7.3,-1.0,74,48,32,30.27,29.85,16,4,28,0.00
2013-3-18,36.9,25.1,14.0,23.0,6.2,-1.0,77,47,25,30.41,30.24,7,2,12,0.00
2013-3-19,31.5,28.5,23.3,31.0,27.4,22.0,98,96,78,30.22,29.64,15,6,25,0.00
2013-3-20,34.8,28.2,20.8,28.0,22.5,19.0,96,80,59,29.72,29.62,20,4,27,0.24
2013-3-21,42.0,30.3,20.1,23.0,18.3,14.0,86,64,32,29.73,29.56,7,3,11,0.10
2013-3-22,38.1,31.4,25.0,23.0,18.5,14.0,87,61,38,29.64,29.56,10,3,19,0.00
2013-3-23,39.3,33.0,24.0,25.0,21.9,18.0,81,65,45,29.67,29.53,23,8,31,0.00
2013-3-24,47.2,37.5,31.0,27.0,24.5,23.0,76,61,40,29.76,29.65,14,4,26,0.00
2013-3-25,42.4,36.2,30.2,32.0,28.2,24.0,81,73,63,29.74,29.54,14,4,18,0.00
2013-3-26,48.5,39.7,32.0,28.0,23.3,18.0,78,54,32,29.71,29.53,10,4,20,0.00
2013-3-27,50.3,40.8,33.7,35.0,28.4,23.0,96,64,38,29.84,29.69,12,4,16,0.02
2013-3-28,48.5,40.6,34.8,36.0,33.1,26.0,97,77,42,29.96,29.83,6,2,11,0.01
2013-3-29,52.1,44.3,38.9,37.0,33.4,32.0,81,67,51,29.99,29.92,9,3,14,0.00
2013-3-30,52.8,43.4,37.1,32.0,25.6,14.0,80,53,26,30.05,29.95,8,2,16,0.00
2013-3-31,52.8,44.1,34.0,39.0,23.9,14.0,87,47,30,30.07,29.76,17,3,17,0.00
2013-4-1,56.1,42.8,32.8,42.0,36.2,15.0,98,79,46,29.75,29.43,15,5,28,0.55
2013-4-2,36.4,31.4,27.1,20.0,12.9,10.0,55,47,37,29.82,29.69,19,7,28,0.00
2013-4-3,42.9,34.0,27.0,18.0,12.6,9.0,56,43,25,30.03,29.80,23,8,29,0.00
2013-4-4,52.9,39.9,29.7,21.0,15.1,9.0,60,39,22,30.20,29.94,10,5,19,0.00
2013-4-5,56.8,43.6,35.2,30.0,25.4,21.0,74,51,26,29.93,29.61,11,5,21,0.00
2013-4-6,41.8,33.1,26.6,20.0,8.7,2.0,56,37,23,30.30,29.80,21,6,25,0.00
2013-4-7,53.8,42.9,28.6,37.0,26.0,6.0,77,52,34,30.30,29.92,12,4,21,0.00
2013-4-8,61.3,49.5,40.5,40.0,37.5,34.0,93,66,37,30.08,29.88,13,3,19,0.00
2013-4-9,56.7,46.5,41.2,48.0,42.0,37.0,98,85,63,30.06,29.84,17,3,21,0.23
2013-4-10,57.0,48.1,42.3,50.0,45.1,42.0,99,90,69,29.95,29.83,6,1,9,0.42
2013-4-11,50.4,44.7,40.7,45.0,35.5,20.0,99,73,42,30.13,29.82,7,2,10,0.06
2013-4-12,40.5,33.8,30.8,33.0,28.7,19.0,99,84,46,30.19,29.83,9,2,14,0.00
2013-4-13,49.5,39.1,32.8,40.0,36.1,33.0,99,89,64,29.89,29.76,6,1,9,0.20
2013-4-14,53.3,43.3,36.7,39.0,35.6,31.0,97,76,46,30.15,29.86,15,4,22,0.00
2013-4-15,53.7,43.6,33.4,39.0,34.8,30.0,96,73,42,30.36,30.15,9,2,16,0.00
2013-4-16,61.0,49.5,36.9,52.0,43.0,36.0,96,80,55,30.36,29.95,13,5,22,0.01
2013-4-17,61.9,53.8,44.1,54.0,34.8,26.0,88,51,28,30.29,29.95,13,4,22,0.00
2013-4-18,53.3,47.0,38.8,39.0,30.4,22.0,69,53,39,30.42,30.13,11,4,16,0.00
2013-4-19,73.9,60.2,47.8,62.0,53.6,37.0,97,80,57,30.11,29.56,17,6,27,0.00
2013-4-20,65.1,50.7,39.8,63.0,38.0,23.0,97,65,40,30.13,29.54,15,7,26,0.18
2013-4-21,51.7,41.3,33.0,28.0,22.4,19.0,67,48,28,30.66,30.13,10,3,18,0.00
2013-4-22,48.1,40.5,33.3,34.0,24.9,17.0,91,56,34,30.76,30.60,15,4,21,0.00
2013-4-23,40.4,36.5,32.0,40.0,35.2,30.0,99,95,88,30.59,30.18,9,3,15,0.02
2013-4-24,69.9,51.5,40.6,56.0,47.3,40.0,99,87,56,30.15,29.73,11,4,16,0.02
2013-4-25,60.1,53.7,46.0,51.0,37.1,27.0,95,57,29,30.24,29.73,16,5,21,0.05
2013-4-26,55.7,48.8,40.4,37.0,31.6,26.0,76,53,38,30.39,30.25,10,3,14,0.00
2013-4-27,60.7,51.3,40.8,41.0,35.3,30.0,81,56,41,30.39,30.26,9,2,14,0.00
2013-4-28,64.8,53.5,42.9,41.0,36.6,33.0,76,55,36,30.30,30.20,12,3,19,0.00
2013-4-29,67.5,53.8,43.9,47.0,39.2,33.0,82,60,40,30.22,30.15,14,3,16,0.00
2013-4-30,66.8,56.4,45.4,41.0,33.5,23.0,71,44,28,30.35,30.20,10,2,15,0.00
2013-5-1,68.8,57.4,43.6,41.0,31.3,23.0,52,39,21,30.42,30.34,10,2,12,0.00
2013-5-2,73.4,54.0,42.8,46.0,37.2,32.0,77,55,29,30.48,30.35,13,3,24,0.00
2013-5-3,61.0,50.2,38.3,47.0,41.3,36.0,93,73,55,30.50,30.34,11,3,14,0.00
2013-5-4,61.7,49.0,39.4,45.0,40.6,36.0,95,75,51,30.35,30.27,11,3,17,0.00
2013-5-5,58.2,43.9,38.3,41.0,35.8,-99.9,95,78,50,30.31,30.22,7,-13,10,0.00
2013-5-6,66.9,50.4,38.4,50.0,43.3,37.0,97,79,34,30.24,30.12,10,3,13,0.00
2013-5-7,75.2,58.5,41.3,57.0,49.6,41.0,99,77,34,30.14,30.05,9,3,15,0.01
2013-5-8,71.5,62.4,54.6,63.0,58.1,54.0,99,86,66,30.18,30.05,11,3,18,0.05
2013-5-9,61.5,56.6,53.6,61.0,56.5,54.0,100,99,97,30.04,29.86,7,2,10,0.55
2013-5-10,74.0,61.1,53.3,63.0,57.1,53.0,100,88,57,29.91,29.86,6,1,11,0.02
2013-5-11,65.5,59.2,52.0,64.0,58.4,52.0,100,97,90,29.87,29.64,10,3,14,0.24
2013-5-12,67.4,58.1,46.7,61.0,48.2,-99.9,100,76,47,29.71,29.50,10,-18,24,0.01
2013-5-13,54.4,45.5,39.6,34.0,27.6,-99.9,73,56,41,29.99,29.72,14,-17,22,0.00
2013-5-14,57.9,48.4,37.8,40.0,33.2,27.0,85,59,32,30.00,29.91,9,2,15,0.00
2013-5-15,62.2,50.6,39.6,51.0,38.1,30.0,98,65,36,30.00,29.63,10,2,20,0.12
2013-5-16,76.8,61.9,47.7,54.0,45.7,38.0,100,63,25,29.76,29.55,16,4,23,0.01
2013-5-17,65.4,56.9,47.4,45.0,40.9,35.0,75,57,33,30.17,29.76,11,3,19,0.00
2013-5-18,66.4,54.8,48.3,49.0,44.3,39.0,96,69,39,30.28,30.17,11,3,16,0.00
2013-5-19,60.7,50.9,48.1,53.0,49.3,48.0,99,94,75,30.33,30.19,8,1,10,0.04
2013-5-20,74.6,61.1,49.5,64.0,57.6,49.0,100,89,67,30.19,29.90,12,2,18,0.01
2013-5-21,60.6,52.9,47.9,59.0,52.4,48.0,100,98,90,30.04,29.91,18,3,22,0.45
2013-5-22,55.2,51.2,49.0,54.0,50.9,49.0,100,99,96,29.97,29.86,8,2,10,0.24
2013-5-23,67.1,58.4,48.9,67.0,58.2,49.0,100,99,95,29.91,29.75,9,2,15,0.13
2013-5-24,70.1,61.6,49.8,68.0,60.5,49.0,100,96,84,29.79,29.60,9,3,21,0.56
2013-5-25,49.9,47.1,41.8,49.0,46.5,42.0,99,98,93,29.79,29.63,13,5,27,0.70
2013-5-26,56.9,47.9,41.8,45.0,42.1,39.0,99,82,57,30.00,29.59,12,4,21,0.03
2013-5-27,66.7,54.4,39.5,45.0,38.7,35.0,91,60,33,30.14,29.99,11,3,21,0.00
2013-5-28,69.5,58.6,47.0,48.0,40.4,37.0,82,53,33,30.21,30.14,9,2,12,0.00
2013-5-29,59.2,54.7,49.3,59.0,54.2,46.0,100,98,86,30.15,29.97,3,1,7,0.27
2013-5-30,84.3,71.8,57.9,67.0,62.7,58.0,100,76,47,30.01,29.95,9,2,20,0.00
2013-5-31,90.6,78.7,65.6,69.0,65.0,62.0,91,65,41,30.02,29.86,11,2,16,0.00
2013-6-1,91.2,79.6,68.4,71.0,66.7,63.0,87,67,42,29.89,29.77,15,3,22,0.02
2013-6-2,88.0,75.2,65.5,73.0,68.0,65.0,98,80,48,29.79,29.61,12,4,21,0.70
2013-6-3,77.7,68.2,58.9,68.0,62.6,52.0,100,84,52,29.77,29.67,10,2,16,0.07
2013-6-4,64.3,58.4,52.4,52.0,46.1,43.0,84,65,47,30.04,29.75,13,3,20,0.00
2013-6-5,72.2,60.2,48.7,51.0,45.0,35.0,88,61,26,30.13,30.04,7,2,11,0.00
2013-6-6,68.1,60.5,54.8,55.0,48.6,42.0,92,67,42,30.17,30.09,8,2,13,0.00
2013-6-7,56.4,53.1,49.3,53.0,51.2,48.0,100,93,75,30.09,29.87,13,2,13,0.60
2013-6-8,73.3,60.7,51.9,63.0,56.9,52.0,100,88,69,29.93,29.62,12,3,18,0.33
2013-6-9,75.8,66.0,56.1,59.0,55.9,54.0,95,72,49,30.11,29.94,8,2,15,0.00
2013-6-10,66.9,60.8,56.1,59.0,55.6,52.0,98,83,73,30.17,30.01,7,1,9,0.15
2013-6-11,59.3,55.0,53.3,57.0,54.4,53.0,100,98,90,30.00,29.54,10,3,17,0.97
2013-6-12,64.5,59.4,54.3,58.0,55.5,53.0,99,87,75,29.76,29.51,10,2,19,0.00
2013-6-13,68.6,59.6,53.0,58.0,54.0,51.0,99,83,57,29.77,29.69,5,1,10,0.10
2013-6-14,76.1,62.6,54.0,59.0,54.7,52.0,100,79,44,29.72,29.64,7,1,9,0.01
2013-6-15,74.7,65.3,53.4,54.0,47.5,43.0,87,55,34,29.87,29.72,14,2,16,0.00
2013-6-16,73.6,65.5,57.2,60.0,54.1,46.0,85,67,55,29.87,29.66,6,1,10,0.00
2013-6-17,80.7,67.7,58.5,64.0,60.0,56.0,97,78,43,29.83,29.70,9,2,21,0.02
2013-6-18,65.3,60.2,56.3,60.0,57.6,55.0,98,91,77,29.94,29.82,3,1,7,0.08
2013-6-19,73.9,62.7,51.9,56.0,51.3,45.0,98,70,38,30.10,29.89,5,1,11,0.01
2013-6-20,75.9,64.3,52.3,57.0,50.8,46.0,92,64,41,30.22,30.11,7,2,13,0.00
2013-6-21,80.8,68.7,55.7,61.0,55.8,50.0,91,66,36,30.19,30.14,6,2,13,0.00
2013-6-22,81.4,71.3,61.1,71.0,63.8,55.0,97,78,62,30.16,30.05,4,1,9,0.08
2013-6-23,85.3,70.1,64.6,75.0,68.1,64.0,99,94,70,30.10,29.93,11,2,19,1.51
2013-6-24,89.2,76.2,67.9,74.0,69.4,65.0,100,81,52,29.94,29.81,12,3,26,0.01
2013-6-25,87.3,76.0,69.1,74.0,69.3,65.0,99,81,60,29.85,29.67,7,2,22,0.59
2013-6-26,76.7,68.0,57.9,72.0,66.8,58.0,100,96,78,29.83,29.66,7,1,13,0.11
2013-6-27,69.0,60.9,56.0,67.0,60.4,56.0,100,98,91,29.83,29.76,7,2,10,0.62
2013-6-28,63.9,59.6,55.1,64.0,59.7,55.0,100,100,100,29.77,29.49,10,3,20,0.35
2013-6-29,81.5,71.5,63.5,73.0,68.2,64.0,100,90,66,29.64,29.50,9,2,15,0.02
2013-6-30,84.2,74.2,66.8,74.0,69.6,67.0,100,86,64,29.88,29.64,7,2,12,0.00
2013-7-1,78.2,71.8,67.7,73.0,70.4,67.0,100,95,80,30.04,29.88,5,1,7,0.57
2013-7-2,71.5,64.1,58.4,72.0,64.2,58.0,100,100,98,30.18,30.02,10,2,12,0.11
2013-7-3,85.4,69.8,58.3,77.0,66.9,58.0,100,91,68,30.17,30.05,8,2,13,0.27
2013-7-4,90.1,80.7,70.6,79.0,73.6,70.0,98,80,60,30.13,30.00,7,2,13,0.00
2013-7-5,90.4,81.6,72.5,79.0,73.5,70.0,96,77,59,30.08,29.94,9,2,12,0.00
2013-7-6,86.0,79.0,70.1,74.0,70.9,65.0,91,77,61,30.00,29.90,7,2,13,0.00
2013-7-7,85.6,75.7,67.6,75.0,69.0,65.0,98,80,56,29.95,29.86,6,2,13,0.17
2013-7-8,73.9,69.1,61.7,72.0,67.8,61.0,100,95,83,30.03,29.86,7,1,11,0.15
2013-7-9,72.5,65.8,62.2,68.0,64.7,62.0,100,96,84,30.08,30.02,5,1,8,0.02
2013-7-10,68.7,64.8,61.1,69.0,64.8,61.0,100,100,100,30.06,29.74,5,1,8,0.12
2013-7-11,81.2,72.9,67.7,76.0,71.0,65.0,100,94,73,29.91,29.71,5,1,8,0.03
2013-7-12,79.3,69.2,62.1,65.0,61.1,58.0,91,76,58,30.17,29.92,9,2,12,0.00
2013-7-13,78.6,69.7,61.2,67.0,62.7,57.0,95,79,58,30.28,30.18,5,1,7,0.00
2013-7-14,86.0,76.2,64.3,74.0,70.1,63.0,99,83,62,30.25,30.15,5,1,9,0.00
2013-7-15,90.6,79.9,70.5,74.0,70.2,65.0,95,74,54,30.15,30.03,6,1,11,0.00
2013-7-16,90.0,79.7,71.5,76.0,70.0,64.0,93,73,53,30.12,30.05,8,1,11,0.00
2013-7-17,90.4,80.1,70.7,77.0,72.4,69.0,97,79,54,30.12,29.90,11,2,21,0.45
2013-7-18,86.8,75.2,69.9,76.0,71.2,69.0,99,88,63,29.96,29.89,5,1,10,0.30
2013-7-19,91.8,80.4,68.4,77.0,73.3,68.0,100,81,57,29.90,29.62,13,3,22,0.01
2013-7-20,86.9,77.9,68.6,74.0,69.0,65.0,89,75,58,29.73,29.57,14,3,22,0.00
2013-7-21,75.4,69.4,62.6,65.0,62.7,60.0,98,80,62,29.96,29.74,8,2,12,0.00
2013-7-22,73.3,66.8,64.0,69.0,65.3,62.0,100,95,84,30.00,29.88,6,1,11,0.02
2013-7-23,70.8,65.5,63.0,69.0,65.1,63.0,100,99,91,29.87,29.51,7,1,11,0.99
2013-7-24,80.4,70.2,58.0,72.0,64.6,54.0,100,83,60,29.93,29.54,8,2,16,0.01
2013-7-25,68.9,61.0,54.0,60.0,55.4,51.0,99,82,68,30.07,29.92,5,1,11,0.05
2013-7-26,71.2,65.0,60.2,66.0,62.7,60.0,98,93,81,30.05,29.88,8,2,16,0.13
2013-7-27,81.9,70.8,58.9,67.0,63.3,57.0,98,79,45,29.98,29.91,9,2,12,0.00
2013-7-28,69.5,65.9,62.4,67.0,65.2,62.0,100,97,90,29.99,29.95,8,2,13,0.01
2013-7-29,77.6,66.9,61.7,71.0,65.5,62.0,100,95,79,30.00,29.94,5,1,11,0.00
2013-7-30,77.7,68.6,59.6,66.0,59.9,54.0,100,77,45,30.04,29.98,10,2,15,0.01
2013-7-31,78.6,68.9,58.4,64.0,59.9,56.0,94,74,48,30.08,30.00,8,1,10,0.00
2013-8-1,77.1,68.1,60.2,66.0,63.1,59.0,98,85,60,30.00,29.84,9,2,13,0.07
2013-8-2,80.1,69.0,63.2,70.0,63.2,58.0,100,84,48,29.83,29.71,7,2,15,0.26
2013-8-3,76.9,67.2,59.8,64.0,59.3,56.0,94,77,53,29.79,29.70,9,2,15,0.00
2013-8-4,75.5,65.1,56.6,62.0,57.1,53.0,92,77,54,29.82,29.72,9,2,14,0.00
2013-8-5,72.0,61.9,54.9,55.0,50.5,44.0,94,69,43,30.00,29.81,14,2,14,0.00
2013-8-6,74.3,64.2,52.3,58.0,51.9,45.0,91,66,46,30.11,30.00,7,1,9,0.00
2013-8-7,76.1,66.2,55.6,63.0,57.3,52.0,93,74,54,30.14,30.07,8,2,12,0.00
2013-8-8,81.8,69.3,60.3,72.0,65.0,56.0,97,86,69,30.07,29.95,8,2,12,0.16
2013-8-9,71.7,69.8,67.3,71.0,69.3,67.0,100,99,96,29.97,29.68,8,2,23,0.53
2013-8-10,77.0,70.1,58.6,68.0,59.5,49.0,100,72,38,29.95,29.71,11,3,17,0.01
2013-8-11,76.9,65.4,53.0,58.0,54.7,50.0,91,70,45,30.01,29.95,8,2,12,0.00
2013-8-12,78.1,68.5,57.7,62.0,58.0,53.0,90,71,45,29.97,29.87,8,2,13,0.00
2013-8-13,73.4,67.4,60.7,67.0,63.1,58.0,97,86,75,29.87,29.65,10,1,15,0.00
2013-8-14,72.1,64.9,55.9,64.0,57.9,51.0,100,79,56,29.86,29.59,13,3,22,0.00
2013-8-15,73.4,62.6,51.7,56.0,53.2,50.0,93,73,49,30.05,29.87,9,2,14,0.00
2013-8-16,77.5,65.5,55.5,61.0,55.7,52.0,89,72,46,30.13,30.04,4,1,7,0.00
2013-8-17,78.0,66.9,58.1,63.0,58.0,50.0,92,74,39,30.23,30.14,5,1,10,0.00
2013-8-18,77.0,68.3,60.1,66.0,61.3,56.0,93,79,58,30.23,30.02,7,1,9,0.00
2013-8-19,80.5,70.0,58.2,64.0,61.3,57.0,96,76,52,30.02,29.87,10,1,15,0.00
2013-8-20,83.4,72.7,62.7,67.0,63.4,61.0,93,74,49,30.03,29.91,4,1,14,0.00
2013-8-21,85.6,75.1,64.3,71.0,64.9,60.0,90,72,50,30.08,29.95,8,1,11,0.00
2013-8-22,86.0,75.4,65.5,70.0,65.9,62.0,90,74,48,29.96,29.74,9,2,15,0.00
2013-8-23,77.0,69.6,58.8,67.0,56.7,48.0,87,66,43,30.09,29.74,9,2,17,0.00
2013-8-24,77.7,64.3,52.6,55.0,50.0,46.0,86,63,34,30.28,30.10,5,1,9,0.00
2013-8-25,79.0,66.8,54.5,59.0,55.7,52.0,94,70,41,30.32,30.11,7,1,12,0.00
2013-8-26,77.2,68.2,60.7,69.0,64.3,58.0,98,87,73,30.11,29.82,9,2,14,0.24
2013-8-27,83.7,72.1,65.4,69.0,66.6,64.0,99,84,57,29.85,29.79,5,1,7,0.00
2013-8-28,81.1,70.9,63.5,71.0,65.9,62.0,98,85,67,29.96,29.82,7,1,10,0.24
2013-8-29,65.5,63.0,60.4,65.0,62.0,60.0,100,96,88,30.05,29.93,7,1,15,0.03
2013-8-30,81.6,68.8,59.7,70.0,64.8,60.0,100,88,65,29.99,29.75,6,1,12,0.00
2013-8-31,79.6,73.5,67.7,74.0,69.9,67.0,98,89,73,29.77,29.72,6,2,10,0.01
2013-9-1,82.4,73.8,69.2,74.0,70.6,69.0,100,90,69,29.84,29.71,7,2,10,0.01
2013-9-2,69.5,68.5,67.2,70.0,68.6,67.0,100,100,100,29.82,29.68,7,1,16,1.07
2013-9-3,78.6,70.1,62.3,71.0,67.2,60.0,100,91,70,29.72,29.65,4,1,9,0.01
2013-9-4,77.2,67.1,58.6,62.0,58.4,55.0,96,76,49,29.84,29.71,10,3,16,0.00
2013-9-5,68.3,60.3,49.7,60.0,52.2,42.0,98,77,42,30.10,29.81,8,1,13,0.06
2013-9-6,67.0,55.7,44.9,48.0,44.6,40.0,91,69,42,30.19,30.01,7,1,13,0.00
2013-9-7,76.1,62.2,50.9,57.0,51.1,46.0,84,69,47,30.01,29.78,10,2,14,0.01
2013-9-8,68.2,60.4,48.3,60.0,49.3,40.0,80,68,50,30.03,29.68,15,3,27,0.00
2013-9-9,67.6,55.4,43.2,51.0,45.8,40.0,95,72,46,30.17,30.03,8,2,12,0.00
2013-9-10,71.0,61.3,50.2,69.0,59.8,49.0,99,94,83,30.10,29.98,7,2,9,0.09
2013-9-11,90.9,78.0,68.1,77.0,72.4,67.0,100,84,57,30.01,29.86,8,3,28,0.14
2013-9-12,78.9,69.5,64.9,75.0,68.5,65.0,100,96,81,29.88,29.63,9,2,14,1.47
2013-9-13,70.3,63.7,56.3,69.0,63.3,56.0,100,99,92,29.70,29.54,8,1,14,0.77
2013-9-14,67.8,58.5,49.6,59.0,54.9,48.0,99,88,67,29.99,29.69,8,1,15,0.03
2013-9-15,68.4,57.3,46.1,54.0,50.7,46.0,99,80,53,30.10,29.97,12,2,12,0.00
2013-9-16,64.4,56.2,43.0,56.0,50.4,36.0,93,81,60,30.22,29.95,6,2,13,0.00
2013-9-17,64.4,50.9,39.4,48.0,41.4,36.0,88,72,47,30.38,30.22,8,2,12,0.00
2013-9-18,72.0,58.0,43.1,52.0,47.7,42.0,97,72,41,30.27,30.07,5,1,12,0.00
2013-9-19,75.1,62.2,50.2,58.0,52.7,48.0,95,73,50,30.09,29.98,6,1,9,0.00
2013-9-20,74.5,62.5,53.3,58.0,54.4,52.0,97,77,52,30.06,29.97,5,1,9,0.00
2013-9-21,70.0,60.3,50.1,64.0,58.0,50.0,100,93,75,29.98,29.70,10,3,15,0.01
2013-9-22,69.1,62.5,49.2,66.0,57.4,44.0,99,84,55,29.74,29.55,11,3,17,0.62
2013-9-23,59.3,50.0,42.0,47.0,43.0,40.0,93,78,61,29.94,29.74,7,2,16,0.00
2013-9-24,61.1,49.5,39.5,47.0,43.3,38.0,97,80,56,29.92,29.79,7,2,14,0.00
2013-9-25,59.1,51.9,43.8,50.0,46.9,43.0,98,84,67,29.96,29.83,7,1,9,0.00
2013-9-26,66.0,55.6,45.6,54.0,49.2,44.0,95,80,60,30.11,29.96,7,1,9,0.00
2013-9-27,69.5,58.6,53.9,56.0,52.6,50.0,93,81,61,30.22,30.10,6,1,9,0.00
2013-9-28,71.3,59.4,51.7,56.0,52.7,50.0,98,80,48,30.30,30.22,6,2,10,0.00
2013-9-29,65.7,55.0,47.1,56.0,50.2,47.0,99,85,61,30.23,30.09,6,1,10,0.01
2013-9-30,67.5,54.4,43.9,56.0,50.9,44.0,100,89,60,30.09,29.93,5,1,9,0.01
2013-10-1,74.9,61.6,50.1,57.0,53.7,49.0,99,78,48,29.93,29.80,8,1,12,0.01
2013-10-2,76.5,65.6,55.4,62.0,57.8,54.0,95,77,57,29.88,29.75,12,3,17,0.00
2013-10-3,74.3,63.4,53.6,57.0,52.4,48.0,94,70,43,30.02,29.87,5,1,12,0.00
2013-10-4,69.5,61.5,53.3,55.0,51.8,47.0,85,71,51,30.05,29.99,4,1,6,0.00
2013-10-5,63.3,58.3,54.9,55.0,50.6,44.0,94,76,63,30.09,30.02,5,1,9,0.00
2013-10-6,55.5,51.1,48.6,54.0,47.4,41.0,99,88,70,30.23,30.09,11,2,14,0.15
2013-10-7,69.3,59.4,51.3,69.0,59.0,51.0,100,99,93,30.15,29.75,15,3,22,0.55
2013-10-8,60.9,54.0,45.6,56.0,44.8,39.0,94,72,49,30.34,29.83,11,3,15,0.00
2013-10-9,61.6,49.3,40.3,46.0,42.1,38.0,94,78,51,30.45,30.34,7,1,8,0.00
2013-10-10,60.2,51.5,42.8,50.0,45.5,41.0,97,81,51,30.34,30.15,5,1,6,0.00
2013-10-11,67.0,56.3,48.2,53.0,49.5,47.0,98,80,51,30.15,30.09,5,1,8,0.00
2013-10-12,54.7,52.0,45.3,53.0,50.0,45.0,98,93,84,30.39,30.14,10,2,13,0.00
2013-10-13,55.5,49.0,43.4,51.0,46.6,43.0,100,92,75,30.43,30.36,6,0,7,0.01
2013-10-14,65.1,52.6,42.9,50.0,46.8,42.0,98,82,55,30.36,30.20,7,2,10,0.01
2013-10-15,62.0,56.2,50.1,55.0,52.4,48.0,98,87,75,30.24,30.16,6,1,9,0.00
2013-10-16,60.6,54.4,50.1,53.0,51.9,47.0,100,92,64,30.15,29.87,7,1,10,0.00
2013-10-17,71.5,58.7,50.9,60.0,52.0,49.0,100,81,48,29.86,29.66,12,2,14,0.00
2013-10-18,64.8,56.9,49.5,57.0,50.2,42.0,99,80,56,29.82,29.54,13,3,23,0.25
2013-10-19,63.5,53.3,43.8,48.0,43.7,39.0,82,71,51,29.91,29.71,9,2,13,0.00
2013-10-20,59.0,52.0,44.3,48.0,40.6,34.0,97,68,39,29.94,29.62,15,4,22,0.01
2013-10-21,62.9,50.4,39.1,47.0,41.5,36.0,91,73,49,30.05,29.94,10,2,11,0.00
2013-10-22,57.4,50.4,43.2,54.0,46.9,40.0,96,88,81,29.93,29.67,7,2,12,0.00
2013-10-23,52.3,45.1,36.8,39.0,35.9,33.0,88,71,51,29.73,29.54,5,1,8,0.00
2013-10-24,49.8,43.2,36.2,37.0,32.8,29.0,89,68,47,29.81,29.58,13,3,27,0.00
2013-10-25,46.8,38.9,32.8,36.0,31.3,27.0,95,76,55,30.08,29.81,10,3,21,0.01
2013-10-26,49.1,40.8,29.8,38.0,30.8,27.0,89,69,50,30.09,29.82,10,2,15,0.00
2013-10-27,52.9,45.1,36.6,39.0,35.2,29.0,89,70,51,29.99,29.74,11,3,17,0.00
2013-10-28,55.0,41.3,32.3,39.0,31.0,24.0,86,68,49,30.30,29.98,10,3,26,0.00
2013-10-29,48.0,36.4,27.7,28.0,23.4,20.0,82,62,35,30.42,30.31,7,1,9,0.00
2013-10-30,47.9,39.2,32.9,34.0,29.1,21.0,85,68,55,30.32,30.15,10,2,14,0.00
2013-10-31,57.6,43.8,34.3,58.0,42.5,31.0,100,95,85,30.20,29.74,11,1,16,0.19
2013-11-1,68.4,61.3,55.1,63.0,57.5,48.0,100,88,71,29.73,29.34,21,7,31,0.12
2013-11-2,62.7,53.4,45.2,48.0,44.9,42.0,96,74,51,29.69,29.54,10,2,12,0.05
2013-11-3,48.5,39.5,30.5,48.0,27.7,18.0,96,64,39,30.38,29.69,13,4,16,0.00
2013-11-4,41.2,32.9,27.5,19.0,17.2,16.0,65,54,36,30.67,30.39,10,2,15,0.00
2013-11-5,47.8,37.8,29.3,34.0,27.3,17.0,87,67,50,30.68,30.47,8,2,12,0.00
2013-11-6,57.1,46.0,35.2,47.0,40.2,32.0,91,81,63,30.46,29.94,8,3,17,0.00
2013-11-7,57.4,49.9,37.4,57.0,46.7,31.0,97,89,71,29.94,29.61,9,3,18,0.04
2013-11-8,43.3,37.8,30.8,31.0,26.8,24.0,79,65,52,29.98,29.74,12,4,23,0.00
2013-11-9,40.8,37.4,32.1,30.0,24.2,22.0,75,59,52,30.11,29.98,12,3,21,0.00
2013-11-10,43.2,39.2,34.7,41.0,36.8,30.0,97,91,78,30.00,29.69,8,1,15,0.10
2013-11-11,46.8,40.9,36.7,37.0,30.6,28.0,85,68,50,30.00,29.74,13,4,23,0.00
2013-11-12,42.0,32.3,26.4,35.0,22.2,17.0,81,67,57,30.09,29.80,15,5,25,0.00
2013-11-13,32.3,27.4,22.7,17.0,15.0,12.0,75,60,46,30.22,30.07,11,4,23,0.00
2013-11-14,46.9,36.4,26.3,30.0,24.1,15.0,73,62,50,30.06,29.97,10,4,19,0.00
2013-11-15,54.5,43.0,34.3,27.0,22.4,20.0,73,46,29,30.13,30.05,9,3,12,0.00
2013-11-16,58.2,45.7,39.4,35.0,26.8,21.0,77,50,29,30.29,30.13,6,1,6,0.00
2013-11-17,48.0,44.7,45.2,48.0,36.2,-99.9,100,93,99,30.11,0.00,9,-33,9,0.14
2013-11-18,61.8,54.9,46.0,60.0,46.8,33.0,100,77,49,29.84,29.46,13,4,23,0.38
2013-11-19,46.0,36.0,29.4,33.0,22.2,17.0,71,58,47,30.20,29.55,18,7,27,0.00
2013-11-20,40.7,31.9,26.6,19.0,16.0,12.0,67,53,31,30.59,30.20,11,2,16,0.00
2013-11-21,45.9,35.2,26.5,23.0,16.4,11.0,75,49,26,30.60,30.32,7,2,11,0.00
2013-11-22,39.3,36.9,34.4,37.0,32.6,23.0,98,85,64,30.30,29.75,6,1,9,0.05
2013-11-23,41.9,35.5,27.2,41.0,26.4,17.0,99,72,45,29.82,29.68,20,5,29,0.00
2013-11-24,26.8,21.1,17.2,18.0,7.6,3.0,73,56,46,30.06,29.68,31,10,39,0.00
2013-11-25,28.8,22.3,16.2,13.0,3.8,-2.0,60,46,26,30.28,30.05,22,6,28,0.00
2013-11-26,34.1,30.2,25.9,32.0,24.6,13.0,97,80,56,30.28,30.09,9,2,12,0.02
2013-11-27,59.4,45.6,32.9,59.0,45.1,32.0,100,98,88,30.07,29.16,15,5,30,0.09
2013-11-28,35.5,28.0,19.0,32.0,16.9,8.0,88,64,43,30.36,29.29,28,7,28,0.09
2013-11-29,28.8,21.3,15.9,13.0,9.8,7.0,78,62,41,30.71,30.36,7,2,13,0.00
2013-11-30,30.3,22.3,13.1,22.0,14.7,8.0,84,73,53,30.78,30.40,9,1,11,0.00
2013-12-1,35.5,33.0,28.2,35.0,31.0,22.0,99,92,76,30.40,30.01,5,1,10,0.23
2013-12-2,36.9,35.3,33.7,37.0,35.4,34.0,100,99,99,30.00,29.89,6,2,13,0.24
2013-12-3,42.3,36.6,32.1,41.0,35.7,30.0,100,96,89,29.89,29.82,5,1,7,0.01
2013-12-4,39.6,34.1,30.1,31.0,28.4,25.0,94,80,69,30.16,29.87,7,2,9,0.00
2013-12-5,41.1,35.0,30.5,41.0,33.2,27.0,100,93,82,30.20,29.87,5,1,7,0.03
2013-12-6,45.9,41.9,34.3,46.0,38.0,29.0,100,87,60,30.09,29.82,9,2,16,0.06
2013-12-7,36.2,31.6,25.3,31.0,22.4,13.0,95,70,49,30.38,30.02,11,4,27,0.04
2013-12-8,28.7,25.4,21.4,17.0,13.7,12.0,71,62,49,30.53,30.38,6,2,10,0.00
2013-12-9,28.5,25.7,23.0,28.0,22.2,14.0,97,87,62,30.48,29.82,7,2,11,0.00
2013-12-10,32.3,28.5,21.5,31.0,26.6,15.0,98,92,72,29.88,29.72,10,3,20,0.00
2013-12-11,29.2,22.3,15.8,19.0,16.0,13.0,91,77,62,30.11,29.90,11,4,20,0.01
2013-12-12,20.7,15.5,10.9,19.0,4.5,-1.0,92,63,43,30.21,29.98,15,3,20,0.00
2013-12-13,24.5,14.2,5.1,15.0,5.8,-4.0,87,70,54,30.37,29.90,9,3,24,0.00
2013-12-14,13.0,8.6,2.9,9.0,-1.0,-5.0,90,66,45,30.59,30.30,8,2,13,0.00
2013-12-15,24.7,17.5,11.2,23.0,15.7,9.0,94,92,90,30.27,29.40,19,5,22,0.00
2013-12-16,25.4,18.4,8.6,19.0,9.8,0.0,93,71,43,30.15,29.65,25,4,25,0.03
2013-12-17,13.9,8.6,0.9,11.0,3.1,-4.0,91,79,63,30.25,29.99,10,2,12,0.00
2013-12-18,32.6,23.2,13.8,23.0,18.3,12.0,91,82,62,29.98,29.83,11,3,17,0.09
2013-12-19,37.4,29.1,21.5,26.0,22.9,19.0,90,78,59,30.05,29.89,10,3,12,0.01
2013-12-20,42.0,37.3,31.4,36.0,30.9,26.0,88,78,69,30.08,29.86,5,1,10,0.03
2013-12-21,47.3,40.7,34.1,47.0,39.2,34.0,99,94,82,29.90,29.80,5,1,9,0.04
2013-12-22,40.9,31.4,27.9,40.0,31.1,28.0,99,99,98,30.03,29.82,12,3,17,0.28
2013-12-23,34.1,31.2,27.7,34.0,30.9,27.0,100,99,98,30.07,29.93,5,1,9,0.00
2013-12-24,34.2,27.8,18.0,34.0,24.6,12.0,100,88,77,30.14,30.01,10,1,15,0.15
2013-12-25,20.7,14.1,6.5,12.0,7.6,1.0,86,75,67,30.51,30.14,15,3,25,0.00
2013-12-26,25.7,20.4,14.5,25.0,16.9,7.0,96,86,67,30.47,30.05,5,1,10,0.00
2013-12-27,32.1,24.7,19.4,25.0,20.9,18.0,94,86,69,30.18,30.11,7,2,13,0.04
2013-12-28,39.2,30.2,19.5,34.0,26.4,18.0,94,86,78,30.14,29.93,9,3,16,0.06
2013-12-29,40.1,34.5,30.7,34.0,32.0,29.0,98,91,76,29.97,29.47,6,1,9,0.36
2013-12-30,36.5,27.1,8.2,35.0,23.1,2.0,99,85,69,30.12,29.47,17,4,21,0.57
2013-12-31,17.6,9.9,3.2,8.0,3.3,0.0,89,75,53,30.11,29.99,4,1,8,0.00
2014-1-1,21.8,14.5,8.4,10.0,7.9,5.0,92,76,55,30.35,30.11,13,2,21,0.00
2014-1-2,13.9,3.1,-3.5,9.0,-0.3,-7.0,88,85,78,30.35,29.93,13,4,21,0.00